Location: Newark
(39.8867°N, 94.3600°W)
Time: 05:18:18
(UTC+00:00)

ISS - Visible Passes

Search period start: 28 January 2020 00:00
Search period end: 07 February 2020 00:00
Orbit: 416 x 423 km, 51.6° (Epoch: 28 January)

Date Brightness Start Highest point End Pass type
(mag) Time Alt. Az. Time Alt. Az. Time Alt. Az.
28 Jan -1.3 00:26:49 10° NW 00:28:48 15° NNW 00:30:48 10° NNE visible
29 Jan -1.1 01:17:44 10° NNW 01:18:27 11° N 01:18:27 11° N visible
30 Jan -1.2 00:29:46 10° NNW 00:31:02 12° N 00:32:16 10° NNE visible
31 Jan -1.2 01:19:22 10° NNW 01:20:12 12° N 01:20:12 12° N visible
01 Feb -1.3 00:31:52 10° NNW 00:33:15 12° N 00:34:37 10° NNE visible
02 Feb -1.6 01:20:36 10° NNW 01:22:02 17° N 01:22:02 17° N visible
03 Feb -1.7 00:33:11 10° NNW 00:35:21 16° NNE 00:36:33 14° NE visible
03 Feb -0.5 02:09:20 10° NW 02:09:31 11° NW 02:09:31 11° NW visible
04 Feb -2.5 01:21:48 10° NW 01:24:07 31° N 01:24:07 31° N visible
05 Feb -2.5 00:34:20 10° NNW 00:37:16 26° NNE 00:38:49 19° ENE visible
05 Feb -0.8 02:10:57 10° WNW 02:11:48 16° WNW 02:11:48 16° WNW visible
06 Feb -3.8 01:23:12 10° NW 01:26:35 76° SW 01:26:39 76° SSW visible
